Home   Weather   Cali   Past weeks

Flag for Colombia Past Weather in Cali, Colombia — Yesterday and Last 2 Weeks

Now
68 °F

Passing clouds.


Feels Like: 68 °F
Forecast: 67 / 82 °F
Wind: No wind

Location: Cali / Alfonso Bonillaaragon

Current Time: Jul 23, 2017 at 5:59:07 am

Latest Report: Jul 23, 2017 at 5:30 am


Visibility: N/A

Pressure: 29.98 "Hg (26.82 "Hg at 955m altitude)

Humidity: 100%

Dew Point: 68 °F

Location of CaliLocation

Past Weather in Cali — Graph

°F

Cali Temperature Yesterday

Maximum temperature yesterday: 88 °F (at 3:00 pm)
Minimum temperature yesterday: 68 °F (at 3:00 am)
Average temperature yesterday: 75 °F

High & Low Weather Summary for the Past Weeks

 TemperatureHumidityPressure
High91 °F (Jul 12, 3:00 pm)100% (Jul 8, 6:00 am)30.12 "Hg (Jul 8, 6:00 am)
Low63 °F (Jul 21, 4:00 am)33% (Jul 13, 1:00 pm)29.86 "Hg (Jul 18, 4:00 pm)
Average75 °F77%30.00 "Hg
* Reported Jul 8 4:00 am — Jul 23 4:00 am, Cali. Weather by CustomWeather, © 2017

Note: Actual official high and low records may vary slightly from our data, if they occured in-between our weather recording intervals... More about our weather records

Advertising

Cali Weather History for the Previous 24 Hours

Scroll right to see more
 ConditionsComfort  
Time TempWeatherWind HumidityBarometerVisibility
4:00 am
Sun, Jul 23
68 °FPassing clouds.6 mph100%29.97 "HgN/A
3:00 am68 °FPassing clouds.2 mph100%29.98 "HgN/A
2:00 am68 °FPassing clouds.2 mph100%30.00 "HgN/A
1:00 am70 °FPassing clouds.6 mph100%30.00 "HgN/A
12:00 am73 °FPartly cloudy.8 mph78%30.02 "HgN/A
11:00 pm
Sat, Jul 22
73 °FPassing clouds.8 mph78%30.02 "HgN/A
10:00 pm75 °FPartly cloudy.12 mph74%30.02 "HgN/A
9:00 pm73 °FPartly cloudy.7 mph83%29.99 "HgN/A
8:00 pm77 °FPassing clouds.8 mph74%29.97 "HgN/A
7:00 pm77 °FPartly cloudy.7 mph74%29.95 "HgN/A
6:00 pm81 °FBroken clouds.12 mph66%29.93 "HgN/A
5:00 pm84 °FBroken clouds.14 mph55%29.90 "HgN/A
4:00 pm86 °FScattered clouds.3 mph49%29.90 "HgN/A
3:00 pm88 °FBroken clouds.5 mph43%29.93 "HgN/A
2:00 pm84 °FBroken clouds.3 mph48%29.95 "HgN/A
1:00 pm84 °FBroken clouds.3 mph48%29.98 "HgN/A
12:00 pm82 °FPartly sunny.No wind55%30.01 "HgN/A
11:00 am79 °FPartly sunny.5 mph65%30.04 "HgN/A
10:00 am77 °FPartly sunny.5 mph74%30.05 "Hg6 mi
9:00 am73 °FPartly sunny.3 mph83%30.05 "Hg6 mi
8:00 am72 °FPartly sunny.3 mph94%30.04 "Hg6 mi
7:00 am70 °FPartly sunny.No wind100%30.02 "HgN/A
6:00 am68 °FPassing clouds.5 mph100%30.01 "HgN/A
5:30 am68 °FPassing clouds.2 mph100%30.01 "HgN/A
5:00 am68 °FPassing clouds.3 mph100%29.99 "HgN/A
Weather by CustomWeather, © 2017

See weather overviewHow to use our weather pages